Time,TemperatureF,DewpointF,PressureIn,WindDirection,WindDirectionDegrees,WindSpeedMPH,WindSpeedGustMPH,Humidity,HourlyPrecipIn,Conditions,Clouds,dailyrainin,SoftwareType,DateUTC
2014-01-26 00:01:00,37.1,30.2,30.01,NW,325,0.0,0.0,76,0.00,,---,0.00,VWS V14.01,2014-01-26 06:01:00,
2014-01-26 00:06:00,37.0,30.1,30.01,NW,325,0.0,0.0,76,0.00,,---,0.00,VWS V14.01,2014-01-26 06:06:00,
2014-01-26 00:11:00,36.9,29.7,30.01,West,263,0.0,0.0,75,0.00,,---,0.00,VWS V14.01,2014-01-26 06:11:00,
2014-01-26 00:16:00,36.8,29.6,30.00,West,263,0.0,0.0,75,0.00,,---,0.00,VWS V14.01,2014-01-26 06:16:00,
2014-01-26 00:21:00,36.8,29.6,30.00,West,263,0.0,0.0,75,0.00,,---,0.00,VWS V14.01,2014-01-26 06:21:00,
2014-01-26 00:26:00,36.8,29.3,30.00,West,263,0.0,0.0,74,0.00,,---,0.00,VWS V14.01,2014-01-26 06:26:00,
2014-01-26 00:31:00,36.7,29.2,30.00,West,263,0.0,0.0,74,0.00,,---,0.00,VWS V14.01,2014-01-26 06:31:00,
2014-01-26 00:36:00,36.6,29.1,30.00,West,263,0.0,0.0,74,0.00,,---,0.00,VWS V14.01,2014-01-26 06:36:00,
2014-01-26 00:41:00,36.5,29.3,30.00,West,263,0.0,0.0,75,0.00,,---,0.00,VWS V14.01,2014-01-26 06:41:00,
2014-01-26 00:46:00,36.4,29.2,29.99,West,263,0.0,0.0,75,0.00,,---,0.00,VWS V14.01,2014-01-26 06:46:00,
2014-01-26 00:51:00,36.3,29.1,29.99,West,263,0.0,0.0,75,0.00,,---,0.00,VWS V14.01,2014-01-26 06:51:00,
2014-01-26 00:56:00,36.3,29.1,29.99,West,263,0.0,0.0,75,0.00,,---,0.00,VWS V14.01,2014-01-26 06:56:00,
2014-01-26 01:01:00,36.2,29.0,29.99,West,263,0.0,0.0,75,0.00,,---,0.00,VWS V14.01,2014-01-26 07:01:00,
2014-01-26 01:06:00,36.1,29.0,29.99,West,263,0.0,0.0,75,0.00,,---,0.00,VWS V14.01,2014-01-26 07:06:00,
2014-01-26 01:11:00,36.0,28.9,29.99,West,263,0.0,0.0,75,0.00,,---,0.00,VWS V14.01,2014-01-26 07:11:00,
2014-01-26 01:16:00,36.0,28.9,29.99,West,263,0.0,0.0,75,0.00,,---,0.00,VWS V14.01,2014-01-26 07:16:00,
2014-01-26 01:21:00,35.9,28.8,29.99,West,263,0.0,0.0,75,0.00,,---,0.00,VWS V14.01,2014-01-26 07:21:00,
2014-01-26 01:26:00,35.8,28.7,29.99,West,263,0.0,0.0,75,0.00,,---,0.00,VWS V14.01,2014-01-26 07:26:00,
2014-01-26 01:31:00,35.9,28.8,29.98,West,263,0.0,0.0,75,0.00,,---,0.00,VWS V14.01,2014-01-26 07:31:00,
2014-01-26 01:36:00,35.8,28.7,29.98,West,263,0.0,0.0,75,0.00,,---,0.00,VWS V14.01,2014-01-26 07:36:00,
2014-01-26 01:41:00,35.8,28.7,29.98,West,263,0.0,0.0,75,0.00,,---,0.00,VWS V14.01,2014-01-26 07:41:00,
2014-01-26 01:46:00,35.7,28.6,29.98,West,263,0.0,0.0,75,0.00,,---,0.00,VWS V14.01,2014-01-26 07:46:00,
2014-01-26 01:51:00,35.7,28.9,29.98,West,263,0.0,0.0,76,0.00,,---,0.00,VWS V14.01,2014-01-26 07:51:00,
2014-01-26 01:56:00,35.8,29.0,29.98,West,263,0.0,0.0,76,0.00,,---,0.00,VWS V14.01,2014-01-26 07:56:00,
2014-01-26 02:01:00,35.8,29.0,29.98,West,263,0.0,0.0,76,0.00,,---,0.00,VWS V14.01,2014-01-26 08:01:00,
2014-01-26 02:06:00,35.8,29.0,29.98,West,263,0.0,0.0,76,0.00,,---,0.00,VWS V14.01,2014-01-26 08:06:00,
2014-01-26 02:11:00,35.8,29.0,29.98,West,263,0.0,0.0,76,0.00,,---,0.00,VWS V14.01,2014-01-26 08:11:00,
2014-01-26 02:16:00,35.8,29.0,29.97,West,260,0.0,1.0,76,0.00,,---,0.00,VWS V14.01,2014-01-26 08:16:00,
2014-01-26 02:21:00,35.7,28.9,29.97,WSW,249,0.0,0.0,76,0.00,,---,0.00,VWS V14.01,2014-01-26 08:21:00,
2014-01-26 02:26:00,35.8,29.0,29.97,WSW,249,0.0,2.0,76,0.00,,---,0.00,VWS V14.01,2014-01-26 08:26:00,
2014-01-26 02:31:00,35.8,29.0,29.96,South,175,1.0,2.0,76,0.00,,---,0.00,VWS V14.01,2014-01-26 08:31:00,
2014-01-26 02:36:00,35.9,29.1,29.96,South,176,2.0,2.0,76,0.00,,---,0.00,VWS V14.01,2014-01-26 08:36:00,
2014-01-26 02:41:00,36.0,29.5,29.96,South,176,0.0,0.0,77,0.00,,---,0.00,VWS V14.01,2014-01-26 08:41:00,
2014-01-26 02:46:00,36.3,29.5,29.96,South,176,0.0,0.0,76,0.00,,---,0.00,VWS V14.01,2014-01-26 08:46:00,
2014-01-26 02:51:00,36.5,29.7,29.96,South,176,0.0,0.0,76,0.00,,---,0.00,VWS V14.01,2014-01-26 08:51:00,
2014-01-26 02:56:00,36.5,29.7,29.96,South,176,0.0,0.0,76,0.00,,---,0.00,VWS V14.01,2014-01-26 08:56:00,
2014-01-26 03:00:00,36.5,29.7,29.97,South,176,0.0,0.0,76,0.00,,---,0.00,VWS V14.01,2014-01-26 09:00:00,
2014-01-26 03:05:00,36.5,29.3,29.97,South,176,0.0,0.0,75,0.00,,---,0.00,VWS V14.01,2014-01-26 09:05:00,
2014-01-26 03:10:00,36.4,29.2,29.97,South,177,1.0,3.0,75,0.00,,---,0.00,VWS V14.01,2014-01-26 09:10:00,
2014-01-26 03:15:00,36.4,29.6,29.97,South,177,0.0,0.0,76,0.00,,---,0.00,VWS V14.01,2014-01-26 09:15:00,
2014-01-26 03:20:00,36.4,29.6,29.97,South,182,0.0,2.0,76,0.00,,---,0.00,VWS V14.01,2014-01-26 09:20:00,
2014-01-26 03:25:00,36.4,29.6,29.97,South,182,0.0,0.0,76,0.00,,---,0.00,VWS V14.01,2014-01-26 09:25:00,
2014-01-26 03:30:00,36.4,29.6,29.97,South,182,0.0,1.0,76,0.00,,---,0.00,VWS V14.01,2014-01-26 09:30:00,
2014-01-26 03:35:00,36.3,29.5,29.97,South,182,0.0,0.0,76,0.00,,---,0.00,VWS V14.01,2014-01-26 09:35:00,
2014-01-26 03:40:00,36.3,29.5,29.97,South,182,1.0,1.0,76,0.00,,---,0.00,VWS V14.01,2014-01-26 09:40:00,
2014-01-26 03:45:00,36.5,29.7,29.96,South,182,0.0,0.0,76,0.00,,---,0.00,VWS V14.01,2014-01-26 09:45:00,
2014-01-26 03:50:00,36.6,29.8,29.96,South,182,0.0,0.0,76,0.00,,---,0.00,VWS V14.01,2014-01-26 09:50:00,
2014-01-26 03:55:00,36.7,29.9,29.96,South,182,1.0,2.0,76,0.00,,---,0.00,VWS V14.01,2014-01-26 09:55:00,
2014-01-26 04:00:00,36.8,30.0,29.96,South,182,0.0,1.0,76,0.00,,---,0.00,VWS V14.01,2014-01-26 10:00:00,
2014-01-26 04:05:00,36.9,30.0,29.96,South,182,0.0,0.0,76,0.00,,---,0.00,VWS V14.01,2014-01-26 10:05:00,
2014-01-26 04:10:00,36.8,29.6,29.96,South,182,0.0,0.0,75,0.00,,---,0.00,VWS V14.01,2014-01-26 10:10:00,
2014-01-26 04:15:00,36.5,29.3,29.96,South,182,0.0,0.0,75,0.00,,---,0.00,VWS V14.01,2014-01-26 10:15:00,
2014-01-26 04:20:00,36.2,29.4,29.96,South,182,0.0,0.0,76,0.00,,---,0.00,VWS V14.01,2014-01-26 10:20:00,
2014-01-26 04:25:00,35.9,29.1,29.96,South,182,0.0,0.0,76,0.00,,---,0.00,VWS V14.01,2014-01-26 10:25:00,
2014-01-26 04:30:00,35.6,28.8,29.96,South,182,0.0,0.0,76,0.00,,---,0.00,VWS V14.01,2014-01-26 10:30:00,
2014-01-26 04:35:00,35.4,28.9,29.96,South,182,0.0,0.0,77,0.00,,---,0.00,VWS V14.01,2014-01-26 10:35:00,
2014-01-26 04:40:00,35.3,29.1,29.96,South,182,0.0,0.0,78,0.00,,---,0.00,VWS V14.01,2014-01-26 10:40:00,
2014-01-26 04:45:00,35.2,29.0,29.96,South,182,0.0,0.0,78,0.00,,---,0.00,VWS V14.01,2014-01-26 10:45:00,
2014-01-26 04:50:00,35.0,28.9,29.96,South,182,0.0,0.0,78,0.00,,---,0.00,VWS V14.01,2014-01-26 10:50:00,
2014-01-26 04:55:00,34.9,29.1,29.96,South,182,0.0,0.0,79,0.00,,---,0.00,VWS V14.01,2014-01-26 10:55:00,
2014-01-26 05:00:00,34.7,28.9,29.96,South,182,0.0,0.0,79,0.00,,---,0.00,VWS V14.01,2014-01-26 11:00:00,
2014-01-26 05:05:00,34.7,28.9,29.96,South,182,0.0,0.0,79,0.00,,---,0.00,VWS V14.01,2014-01-26 11:05:00,
2014-01-26 05:10:00,34.7,28.9,29.96,South,182,0.0,0.0,79,0.00,,---,0.00,VWS V14.01,2014-01-26 11:10:00,
2014-01-26 05:15:00,34.7,29.2,29.96,South,182,0.0,0.0,80,0.00,,---,0.00,VWS V14.01,2014-01-26 11:15:00,
2014-01-26 05:20:00,34.8,29.3,29.96,South,182,0.0,0.0,80,0.00,,---,0.00,VWS V14.01,2014-01-26 11:20:00,
2014-01-26 05:25:00,34.8,29.3,29.96,South,182,0.0,0.0,80,0.00,,---,0.00,VWS V14.01,2014-01-26 11:25:00,
2014-01-26 05:30:00,35.0,29.5,29.96,South,182,0.0,0.0,80,0.00,,---,0.00,VWS V14.01,2014-01-26 11:30:00,
2014-01-26 05:35:00,35.1,29.6,29.96,South,182,0.0,0.0,80,0.00,,---,0.00,VWS V14.01,2014-01-26 11:35:00,
2014-01-26 05:40:00,35.2,29.7,29.96,South,182,0.0,0.0,80,0.00,,---,0.00,VWS V14.01,2014-01-26 11:40:00,
2014-01-26 05:45:00,35.2,29.7,29.96,South,182,0.0,0.0,80,0.00,,---,0.00,VWS V14.01,2014-01-26 11:45:00,
2014-01-26 05:50:00,35.1,29.6,29.96,South,182,1.0,2.0,80,0.00,,---,0.00,VWS V14.01,2014-01-26 11:50:00,
2014-01-26 05:55:00,35.1,29.6,29.96,South,182,0.0,0.0,80,0.00,,---,0.00,VWS V14.01,2014-01-26 11:55:00,
2014-01-26 06:00:00,35.1,29.6,29.95,South,182,0.0,0.0,80,0.00,,---,0.00,VWS V14.01,2014-01-26 12:00:00,
2014-01-26 06:05:00,35.1,29.6,29.95,South,182,0.0,0.0,80,0.00,,---,0.00,VWS V14.01,2014-01-26 12:05:00,
2014-01-26 06:10:00,35.1,29.6,29.95,South,182,0.0,0.0,80,0.00,,---,0.00,VWS V14.01,2014-01-26 12:10:00,
2014-01-26 06:15:00,35.1,29.9,29.95,South,182,0.0,0.0,81,0.00,,---,0.00,VWS V14.01,2014-01-26 12:15:00,
2014-01-26 06:20:00,35.2,30.0,29.95,South,182,0.0,0.0,81,0.00,,---,0.00,VWS V14.01,2014-01-26 12:20:00,
2014-01-26 06:25:00,35.3,30.1,29.95,South,182,0.0,0.0,81,0.00,,---,0.00,VWS V14.01,2014-01-26 12:25:00,
2014-01-26 06:30:00,35.3,30.1,29.96,South,182,0.0,1.0,81,0.00,,---,0.00,VWS V14.01,2014-01-26 12:30:00,
2014-01-26 06:35:00,35.4,30.2,29.96,South,182,0.0,0.0,81,0.00,,---,0.00,VWS V14.01,2014-01-26 12:35:00,
2014-01-26 06:40:00,35.5,30.3,29.96,South,182,1.0,2.0,81,0.00,,---,0.00,VWS V14.01,2014-01-26 12:40:00,
2014-01-26 06:45:00,35.7,30.5,29.96,South,182,0.0,0.0,81,0.00,,---,0.00,VWS V14.01,2014-01-26 12:45:00,
2014-01-26 06:50:00,35.9,30.6,29.96,South,182,0.0,0.0,81,0.00,,---,0.00,VWS V14.01,2014-01-26 12:50:00,
2014-01-26 06:55:00,36.2,30.9,29.96,South,182,0.0,0.0,81,0.00,,---,0.00,VWS V14.01,2014-01-26 12:55:00,
2014-01-26 07:00:00,36.5,31.2,29.96,South,182,0.0,0.0,81,0.00,,---,0.00,VWS V14.01,2014-01-26 13:00:00,
2014-01-26 07:05:00,36.6,31.0,29.96,South,182,0.0,0.0,80,0.00,,---,0.00,VWS V14.01,2014-01-26 13:05:00,
2014-01-26 07:10:00,36.9,31.3,29.96,South,184,2.0,3.0,80,0.00,,---,0.00,VWS V14.01,2014-01-26 13:10:00,
2014-01-26 07:15:00,37.1,31.5,29.97,South,175,0.0,0.0,80,0.00,,---,0.00,VWS V14.01,2014-01-26 13:15:00,
2014-01-26 07:20:00,37.3,31.4,29.97,South,175,0.0,0.0,79,0.00,,---,0.00,VWS V14.01,2014-01-26 13:20:00,
2014-01-26 07:25:00,37.5,31.6,29.97,South,175,0.0,1.0,79,0.00,,---,0.00,VWS V14.01,2014-01-26 13:25:00,
2014-01-26 07:30:00,37.7,31.5,29.96,SSE,167,0.0,2.0,78,0.00,,---,0.00,VWS V14.01,2014-01-26 13:30:00,
2014-01-26 07:35:00,38.1,31.9,29.96,South,190,0.0,0.0,78,0.00,,---,0.00,VWS V14.01,2014-01-26 13:35:00,
2014-01-26 07:40:00,38.4,32.2,29.96,South,190,0.0,0.0,78,0.00,,---,0.00,VWS V14.01,2014-01-26 13:40:00,
2014-01-26 07:45:00,38.7,32.4,29.96,South,190,0.0,0.0,78,0.00,,---,0.00,VWS V14.01,2014-01-26 13:45:00,
2014-01-26 07:50:00,39.0,32.7,29.96,South,190,0.0,0.0,78,0.00,,---,0.00,VWS V14.01,2014-01-26 13:50:00,
2014-01-26 07:55:00,39.3,32.7,29.96,South,190,0.0,0.0,77,0.00,,---,0.00,VWS V14.01,2014-01-26 13:55:00,
2014-01-26 08:00:00,39.7,32.8,29.96,South,190,0.0,0.0,76,0.00,,---,0.00,VWS V14.01,2014-01-26 14:00:00,
2014-01-26 08:05:00,40.0,32.7,29.96,South,184,0.0,0.0,75,0.00,,---,0.00,VWS V14.01,2014-01-26 14:05:00,
2014-01-26 08:10:00,40.3,33.0,29.96,SSE,163,3.0,4.0,75,0.00,,---,0.00,VWS V14.01,2014-01-26 14:10:00,
2014-01-26 08:15:00,40.7,33.1,29.96,South,169,1.0,2.0,74,0.00,,---,0.00,VWS V14.01,2014-01-26 14:15:00,
2014-01-26 08:20:00,41.5,33.2,29.96,SSE,165,0.0,0.0,72,0.00,,---,0.00,VWS V14.01,2014-01-26 14:20:00,
2014-01-26 08:25:00,42.3,33.6,29.96,SSW,211,5.0,5.0,71,0.00,,---,0.00,VWS V14.01,2014-01-26 14:25:00,
2014-01-26 08:30:00,42.8,33.3,29.96,South,190,0.0,4.0,69,0.00,,---,0.00,VWS V14.01,2014-01-26 14:30:00,
2014-01-26 08:35:00,44.0,34.1,29.96,South,188,1.0,2.0,68,0.00,,---,0.00,VWS V14.01,2014-01-26 14:35:00,
2014-01-26 08:40:00,44.2,34.0,29.96,SSW,196,0.0,3.0,67,0.00,,---,0.00,VWS V14.01,2014-01-26 14:40:00,
2014-01-26 08:45:00,44.5,33.9,29.96,SSE,154,4.0,4.0,66,0.00,,---,0.00,VWS V14.01,2014-01-26 14:45:00,
2014-01-26 08:50:00,44.7,34.4,29.96,SE,142,0.0,0.0,67,0.00,,---,0.00,VWS V14.01,2014-01-26 14:50:00,
2014-01-26 08:55:00,45.2,34.5,29.96,SE,142,0.0,0.0,66,0.00,,---,0.00,VWS V14.01,2014-01-26 14:55:00,
2014-01-26 09:00:00,45.6,34.9,29.97,SE,142,0.0,0.0,66,0.00,,---,0.00,VWS V14.01,2014-01-26 15:00:00,
2014-01-26 09:05:00,45.9,35.2,29.97,SSE,153,2.0,2.0,66,0.00,,---,0.00,VWS V14.01,2014-01-26 15:05:00,
2014-01-26 09:10:00,46.7,35.6,29.97,South,184,0.0,7.0,65,0.00,,---,0.00,VWS V14.01,2014-01-26 15:10:00,
2014-01-26 09:15:00,47.4,35.0,29.98,South,187,2.0,5.0,62,0.00,,---,0.00,VWS V14.01,2014-01-26 15:15:00,
2014-01-26 09:20:00,47.6,34.8,29.98,SSW,213,4.0,5.0,61,0.00,,---,0.00,VWS V14.01,2014-01-26 15:20:00,
2014-01-26 09:25:00,47.7,35.3,29.98,SW,235,6.0,9.0,62,0.00,,---,0.00,VWS V14.01,2014-01-26 15:25:00,
2014-01-26 09:30:00,47.5,34.7,29.98,WSW,241,1.0,6.0,61,0.00,,---,0.00,VWS V14.01,2014-01-26 15:30:00,
2014-01-26 09:35:00,47.9,35.5,29.98,South,188,2.0,5.0,62,0.00,,---,0.00,VWS V14.01,2014-01-26 15:35:00,
2014-01-26 09:40:00,48.4,35.6,29.98,SSW,208,1.0,3.0,61,0.00,,---,0.00,VWS V14.01,2014-01-26 15:40:00,
2014-01-26 09:45:00,49.6,35.9,29.97,SSW,202,4.0,4.0,59,0.00,,---,0.00,VWS V14.01,2014-01-26 15:45:00,
2014-01-26 09:50:00,50.4,36.2,29.97,South,190,3.0,9.0,58,0.00,,---,0.00,VWS V14.01,2014-01-26 15:50:00,
2014-01-26 09:55:00,51.0,35.9,29.97,SSW,201,5.0,6.0,56,0.00,,---,0.00,VWS V14.01,2014-01-26 15:55:00,
2014-01-26 10:00:00,51.2,35.6,29.97,WSW,245,6.0,7.0,55,0.00,,---,0.00,VWS V14.01,2014-01-26 16:00:00,
2014-01-26 10:05:00,51.7,35.6,29.97,SW,225,4.0,5.0,54,0.00,,---,0.00,VWS V14.01,2014-01-26 16:05:00,
2014-01-26 10:10:00,52.1,35.5,29.97,SW,216,6.0,6.0,53,0.00,,---,0.00,VWS V14.01,2014-01-26 16:10:00,
2014-01-26 10:15:00,52.4,35.8,29.97,SSW,209,14.0,14.0,53,0.00,,---,0.00,VWS V14.01,2014-01-26 16:15:00,
2014-01-26 10:20:00,52.6,36.0,29.97,SSW,205,5.0,7.0,53,0.00,,---,0.00,VWS V14.01,2014-01-26 16:20:00,
2014-01-26 10:25:00,52.9,35.8,29.97,SSW,211,6.0,7.0,52,0.00,,---,0.00,VWS V14.01,2014-01-26 16:25:00,
2014-01-26 10:30:00,53.3,35.7,29.96,SSW,210,0.0,7.0,51,0.00,,---,0.00,VWS V14.01,2014-01-26 16:30:00,
2014-01-26 10:35:00,53.7,35.5,29.96,SSW,192,2.0,5.0,50,0.00,,---,0.00,VWS V14.01,2014-01-26 16:35:00,
2014-01-26 10:40:00,53.9,35.7,29.96,South,178,1.0,5.0,50,0.00,,---,0.00,VWS V14.01,2014-01-26 16:40:00,
2014-01-26 10:45:00,53.9,35.2,29.95,South,180,4.0,13.0,49,0.00,,---,0.00,VWS V14.01,2014-01-26 16:45:00,
2014-01-26 10:50:00,54.1,35.4,29.95,SSW,205,6.0,10.0,49,0.00,,---,0.00,VWS V14.01,2014-01-26 16:50:00,
2014-01-26 10:55:00,54.3,35.6,29.95,SW,215,3.0,4.0,49,0.00,,---,0.00,VWS V14.01,2014-01-26 16:55:00,
2014-01-26 11:00:00,54.9,35.6,29.94,SSW,212,5.0,6.0,48,0.00,,---,0.00,VWS V14.01,2014-01-26 17:00:00,
2014-01-26 11:05:00,55.5,36.2,29.94,SSW,202,2.0,6.0,48,0.00,,---,0.00,VWS V14.01,2014-01-26 17:05:00,
2014-01-26 11:10:00,55.7,35.8,29.94,South,179,3.0,6.0,47,0.00,,---,0.00,VWS V14.01,2014-01-26 17:10:00,
2014-01-26 11:15:00,56.1,36.2,29.93,SSW,202,5.0,16.0,47,0.00,,---,0.00,VWS V14.01,2014-01-26 17:15:00,
2014-01-26 11:20:00,57.1,36.5,29.93,South,179,5.0,9.0,46,0.00,,---,0.00,VWS V14.01,2014-01-26 17:20:00,
2014-01-26 11:25:00,58.0,36.2,29.93,SSW,211,5.0,8.0,44,0.00,,---,0.00,VWS V14.01,2014-01-26 17:25:00,
2014-01-26 11:30:00,58.9,35.9,29.92,SSW,203,0.0,9.0,42,0.00,,---,0.00,VWS V14.01,2014-01-26 17:30:00,
2014-01-26 11:35:00,59.2,35.5,29.92,SSE,157,7.0,10.0,41,0.00,,---,0.00,VWS V14.01,2014-01-26 17:35:00,
2014-01-26 11:40:00,59.6,35.9,29.92,SSW,201,10.0,10.0,41,0.00,,---,0.00,VWS V14.01,2014-01-26 17:40:00,
2014-01-26 11:45:00,59.6,35.9,29.91,SW,229,5.0,9.0,41,0.00,,---,0.00,VWS V14.01,2014-01-26 17:45:00,
2014-01-26 11:50:00,59.6,35.9,29.91,SW,217,5.0,11.0,41,0.00,,---,0.00,VWS V14.01,2014-01-26 17:50:00,
2014-01-26 11:55:00,59.8,36.1,29.91,South,190,5.0,7.0,41,0.00,,---,0.00,VWS V14.01,2014-01-26 17:55:00,
2014-01-26 12:00:00,59.6,35.3,29.90,SSW,195,6.0,11.0,40,0.00,,---,0.00,VWS V14.01,2014-01-26 18:00:00,
2014-01-26 12:05:00,59.9,36.2,29.90,South,188,4.0,7.0,41,0.00,,---,0.00,VWS V14.01,2014-01-26 18:05:00,
2014-01-26 12:10:00,60.3,35.9,29.90,WSW,240,15.0,18.0,40,0.00,,---,0.00,VWS V14.01,2014-01-26 18:10:00,
2014-01-26 12:15:00,60.6,36.2,29.89,South,179,5.0,13.0,40,0.00,,---,0.00,VWS V14.01,2014-01-26 18:15:00,
2014-01-26 12:20:00,60.9,36.4,29.89,SW,223,9.0,13.0,40,0.00,,---,0.00,VWS V14.01,2014-01-26 18:20:00,
2014-01-26 12:25:00,61.1,36.0,29.89,WSW,249,4.0,10.0,39,0.00,,---,0.00,VWS V14.01,2014-01-26 18:25:00,
2014-01-26 12:30:00,61.1,36.0,29.88,SW,214,11.0,14.0,39,0.00,,---,0.00,VWS V14.01,2014-01-26 18:30:00,
2014-01-26 12:35:00,60.8,35.7,29.88,SSW,207,3.0,12.0,39,0.00,,---,0.00,VWS V14.01,2014-01-26 18:35:00,
2014-01-26 12:40:00,60.7,36.3,29.88,South,187,2.0,2.0,40,0.00,,---,0.00,VWS V14.01,2014-01-26 18:40:00,
2014-01-26 12:45:00,61.0,36.5,29.87,South,188,3.0,3.0,40,0.00,,---,0.00,VWS V14.01,2014-01-26 18:45:00,
2014-01-26 12:50:00,61.0,35.9,29.87,SW,219,4.0,5.0,39,0.00,,---,0.00,VWS V14.01,2014-01-26 18:50:00,
2014-01-26 12:55:00,60.6,35.5,29.87,South,184,9.0,11.0,39,0.00,,---,0.00,VWS V14.01,2014-01-26 18:55:00,
2014-01-26 13:00:00,60.3,34.6,29.85,SW,216,10.0,10.0,38,0.00,,---,0.00,VWS V14.01,2014-01-26 19:00:00,
2014-01-26 13:05:00,60.3,35.3,29.85,SSW,205,3.0,4.0,39,0.00,,---,0.00,VWS V14.01,2014-01-26 19:05:00,
2014-01-26 13:10:00,60.4,35.3,29.85,SW,220,3.0,3.0,39,0.00,,---,0.00,VWS V14.01,2014-01-26 19:10:00,
2014-01-26 13:15:00,60.4,35.3,29.84,SSW,192,4.0,5.0,39,0.00,,---,0.00,VWS V14.01,2014-01-26 19:15:00,
2014-01-26 13:20:00,60.3,35.3,29.84,South,185,6.0,6.0,39,0.00,,---,0.00,VWS V14.01,2014-01-26 19:20:00,
2014-01-26 13:25:00,60.1,35.1,29.84,SSE,155,4.0,4.0,39,0.00,,---,0.00,VWS V14.01,2014-01-26 19:25:00,
2014-01-26 13:30:00,60.0,35.0,29.84,SSW,202,5.0,5.0,39,0.00,,---,0.00,VWS V14.01,2014-01-26 19:30:00,
2014-01-26 13:35:00,60.0,35.0,29.84,South,180,3.0,7.0,39,0.00,,---,0.00,VWS V14.01,2014-01-26 19:35:00,
2014-01-26 13:40:00,60.0,35.0,29.84,SSW,194,3.0,5.0,39,0.00,,---,0.00,VWS V14.01,2014-01-26 19:40:00,
2014-01-26 13:45:00,60.1,35.1,29.84,SSW,193,0.0,5.0,39,0.00,,---,0.00,VWS V14.01,2014-01-26 19:45:00,
2014-01-26 13:50:00,60.2,35.2,29.84,South,184,4.0,6.0,39,0.00,,---,0.00,VWS V14.01,2014-01-26 19:50:00,
2014-01-26 13:55:00,60.2,35.2,29.84,South,186,0.0,0.0,39,0.00,,---,0.00,VWS V14.01,2014-01-26 19:55:00,
2014-01-26 14:00:00,60.3,35.3,29.82,South,184,1.0,1.0,39,0.00,,---,0.00,VWS V14.01,2014-01-26 20:00:00,
2014-01-26 14:05:00,60.2,35.2,29.82,SSW,205,3.0,5.0,39,0.00,,---,0.00,VWS V14.01,2014-01-26 20:05:00,
2014-01-26 14:10:00,60.0,35.0,29.82,SSW,194,4.0,4.0,39,0.00,,---,0.00,VWS V14.01,2014-01-26 20:10:00,
2014-01-26 14:15:00,59.9,34.9,29.82,SW,219,9.0,9.0,39,0.00,,---,0.00,VWS V14.01,2014-01-26 20:15:00,
2014-01-26 14:20:00,59.7,35.4,29.82,SSW,200,4.0,8.0,40,0.00,,---,0.00,VWS V14.01,2014-01-26 20:20:00,
2014-01-26 14:25:00,59.7,35.4,29.82,SW,214,4.0,6.0,40,0.00,,---,0.00,VWS V14.01,2014-01-26 20:25:00,
2014-01-26 14:30:00,59.6,35.3,29.82,South,180,5.0,7.0,40,0.00,,---,0.00,VWS V14.01,2014-01-26 20:30:00,
2014-01-26 14:35:00,59.7,35.4,29.82,South,178,0.0,3.0,40,0.00,,---,0.00,VWS V14.01,2014-01-26 20:35:00,
2014-01-26 14:40:00,59.6,35.3,29.82,South,181,3.0,7.0,40,0.00,,---,0.00,VWS V14.01,2014-01-26 20:40:00,
2014-01-26 14:45:00,59.5,35.2,29.81,SW,218,3.0,3.0,40,0.00,,---,0.00,VWS V14.01,2014-01-26 20:45:00,
2014-01-26 14:49:00,59.4,35.1,29.81,SSW,213,3.0,3.0,40,0.00,,---,0.00,VWS V14.01,2014-01-26 20:49:00,
2014-01-26 14:55:00,59.3,35.0,29.81,South,188,9.0,9.0,40,0.00,,---,0.00,VWS V14.01,2014-01-26 20:55:00,
2014-01-26 15:00:00,59.3,35.6,29.81,SSW,202,6.0,9.0,41,0.00,,---,0.00,VWS V14.01,2014-01-26 21:00:00,
2014-01-26 15:05:00,59.3,35.0,29.81,SW,225,4.0,4.0,40,0.00,,---,0.00,VWS V14.01,2014-01-26 21:05:00,
2014-01-26 15:09:00,59.2,35.5,29.81,WSW,238,4.0,8.0,41,0.00,,---,0.00,VWS V14.01,2014-01-26 21:09:00,
2014-01-26 15:14:00,59.1,35.4,29.81,SSW,196,3.0,5.0,41,0.00,,---,0.00,VWS V14.01,2014-01-26 21:14:00,
2014-01-26 15:19:00,59.1,35.4,29.81,South,190,4.0,5.0,41,0.00,,---,0.00,VWS V14.01,2014-01-26 21:19:00,
2014-01-26 15:24:00,59.0,36.0,29.81,South,174,0.0,0.0,42,0.00,,---,0.00,VWS V14.01,2014-01-26 21:24:00,
2014-01-26 15:29:00,59.0,36.0,29.80,SSE,152,4.0,5.0,42,0.00,,---,0.00,VWS V14.01,2014-01-26 21:29:00,
2014-01-26 15:34:00,59.0,36.0,29.80,SSE,168,3.0,3.0,42,0.00,,---,0.00,VWS V14.01,2014-01-26 21:34:00,
2014-01-26 15:39:00,58.9,36.5,29.80,South,175,5.0,5.0,43,0.00,,---,0.00,VWS V14.01,2014-01-26 21:39:00,
2014-01-26 15:44:00,58.8,37.0,29.80,South,178,4.0,4.0,44,0.00,,---,0.00,VWS V14.01,2014-01-26 21:44:00,
2014-01-26 15:49:00,58.6,36.8,29.80,SSW,206,6.0,9.0,44,0.00,,---,0.00,VWS V14.01,2014-01-26 21:49:00,
2014-01-26 15:54:00,58.4,36.6,29.80,South,176,2.0,5.0,44,0.00,,---,0.00,VWS V14.01,2014-01-26 21:54:00,
2014-01-26 15:59:00,58.2,37.0,29.81,South,169,1.0,3.0,45,0.00,,---,0.00,VWS V14.01,2014-01-26 21:59:00,
2014-01-26 16:04:00,58.0,36.8,29.81,South,169,6.0,6.0,45,0.00,,---,0.00,VWS V14.01,2014-01-26 22:04:00,
2014-01-26 16:09:00,57.9,36.7,29.81,SSW,207,4.0,6.0,45,0.00,,---,0.00,VWS V14.01,2014-01-26 22:09:00,
2014-01-26 16:14:00,57.7,36.5,29.80,SSE,162,2.0,2.0,45,0.00,,---,0.00,VWS V14.01,2014-01-26 22:14:00,
2014-01-26 16:19:00,57.6,36.4,29.80,North,5,1.0,2.0,45,0.00,,---,0.00,VWS V14.01,2014-01-26 22:19:00,
2014-01-26 16:24:00,57.4,36.8,29.80,South,190,5.0,6.0,46,0.00,,---,0.00,VWS V14.01,2014-01-26 22:24:00,
2014-01-26 16:29:00,57.3,36.7,29.80,South,188,3.0,5.0,46,0.00,,---,0.00,VWS V14.01,2014-01-26 22:29:00,
2014-01-26 16:34:00,57.1,36.5,29.80,South,172,2.0,5.0,46,0.00,,---,0.00,VWS V14.01,2014-01-26 22:34:00,
2014-01-26 16:39:00,57.0,37.0,29.80,South,178,0.0,0.0,47,0.00,,---,0.00,VWS V14.01,2014-01-26 22:39:00,
2014-01-26 16:44:00,56.8,36.8,29.79,SSE,155,1.0,4.0,47,0.00,,---,0.00,VWS V14.01,2014-01-26 22:44:00,
2014-01-26 16:49:00,56.7,36.7,29.79,SSW,192,2.0,2.0,47,0.00,,---,0.00,VWS V14.01,2014-01-26 22:49:00,
2014-01-26 16:54:00,56.6,37.2,29.79,SSE,159,0.0,0.0,48,0.00,,---,0.00,VWS V14.01,2014-01-26 22:54:00,
2014-01-26 16:59:00,56.5,37.1,29.80,South,178,0.0,2.0,48,0.00,,---,0.00,VWS V14.01,2014-01-26 22:59:00,
2014-01-26 17:04:00,56.3,36.9,29.80,South,191,0.0,0.0,48,0.00,,---,0.00,VWS V14.01,2014-01-26 23:04:00,
2014-01-26 17:09:00,56.2,37.3,29.80,South,181,0.0,0.0,49,0.00,,---,0.00,VWS V14.01,2014-01-26 23:09:00,
2014-01-26 17:14:00,56.0,37.1,29.79,South,179,3.0,5.0,49,0.00,,---,0.00,VWS V14.01,2014-01-26 23:14:00,
2014-01-26 17:19:00,55.9,37.5,29.79,South,170,7.0,7.0,50,0.00,,---,0.00,VWS V14.01,2014-01-26 23:19:00,
2014-01-26 17:24:00,55.8,37.5,29.79,South,183,1.0,2.0,50,0.00,,---,0.00,VWS V14.01,2014-01-26 23:24:00,
2014-01-26 17:29:00,55.6,37.8,29.79,South,169,5.0,5.0,51,0.00,,---,0.00,VWS V14.01,2014-01-26 23:29:00,
2014-01-26 17:34:00,55.5,38.2,29.79,South,182,3.0,5.0,52,0.00,,---,0.00,VWS V14.01,2014-01-26 23:34:00,
2014-01-26 17:39:00,55.4,38.1,29.79,SSE,165,1.0,1.0,52,0.00,,---,0.00,VWS V14.01,2014-01-26 23:39:00,
2014-01-26 17:44:00,55.2,38.4,29.78,SSE,167,3.0,4.0,53,0.00,,---,0.00,VWS V14.01,2014-01-26 23:44:00,
2014-01-26 17:49:00,55.1,38.3,29.78,SSE,155,2.0,2.0,53,0.00,,---,0.00,VWS V14.01,2014-01-26 23:49:00,
2014-01-26 17:54:00,54.9,38.6,29.78,SE,127,0.0,0.0,54,0.00,,---,0.00,VWS V14.01,2014-01-26 23:54:00,
2014-01-26 17:59:00,54.7,38.4,29.77,SE,144,5.0,5.0,54,0.00,,---,0.00,VWS V14.01,2014-01-26 23:59:00,
2014-01-26 18:04:00,54.6,38.3,29.77,South,172,0.0,1.0,54,0.00,,---,0.00,VWS V14.01,2014-01-27 00:04:00,
2014-01-26 18:09:00,54.5,38.7,29.77,South,174,0.0,0.0,55,0.00,,---,0.00,VWS V14.01,2014-01-27 00:09:00,
2014-01-26 18:14:00,54.5,38.7,29.77,SSE,155,6.0,6.0,55,0.00,,---,0.00,VWS V14.01,2014-01-27 00:14:00,
2014-01-26 18:19:00,54.5,39.1,29.77,SSE,148,5.0,5.0,56,0.00,,---,0.00,VWS V14.01,2014-01-27 00:19:00,
2014-01-26 18:24:00,54.5,39.1,29.77,SSE,149,5.0,9.0,56,0.00,,---,0.00,VWS V14.01,2014-01-27 00:24:00,
2014-01-26 18:29:00,54.6,39.2,29.77,SE,139,1.0,4.0,56,0.00,,---,0.00,VWS V14.01,2014-01-27 00:29:00,
2014-01-26 18:34:00,54.6,39.2,29.77,South,190,3.0,4.0,56,0.00,,---,0.00,VWS V14.01,2014-01-27 00:34:00,
2014-01-26 18:39:00,54.7,39.3,29.77,SSE,160,3.0,7.0,56,0.00,,---,0.00,VWS V14.01,2014-01-27 00:39:00,
2014-01-26 18:44:00,54.7,39.3,29.77,SSE,153,3.0,3.0,56,0.00,,---,0.00,VWS V14.01,2014-01-27 00:44:00,
2014-01-26 18:49:00,54.8,39.4,29.77,South,179,0.0,1.0,56,0.00,,---,0.00,VWS V14.01,2014-01-27 00:49:00,
2014-01-26 18:54:00,54.7,39.3,29.77,South,177,3.0,6.0,56,0.00,,---,0.00,VWS V14.01,2014-01-27 00:54:00,
2014-01-26 18:59:00,54.6,39.2,29.77,SSE,162,2.0,5.0,56,0.00,,---,0.00,VWS V14.01,2014-01-27 00:59:00,
2014-01-26 19:04:00,54.5,39.1,29.77,South,181,5.0,5.0,56,0.00,,---,0.00,VWS V14.01,2014-01-27 01:04:00,
2014-01-26 19:09:00,54.3,39.4,29.77,SSE,150,5.0,6.0,57,0.00,,---,0.00,VWS V14.01,2014-01-27 01:09:00,
2014-01-26 19:14:00,54.2,39.3,29.77,South,182,9.0,9.0,57,0.00,,---,0.00,VWS V14.01,2014-01-27 01:14:00,
2014-01-26 19:19:00,54.1,39.2,29.77,South,180,3.0,5.0,57,0.00,,---,0.00,VWS V14.01,2014-01-27 01:19:00,
2014-01-26 19:24:00,54.0,39.1,29.77,SSE,161,9.0,9.0,57,0.00,,---,0.00,VWS V14.01,2014-01-27 01:24:00,
2014-01-26 19:29:00,53.9,39.5,29.77,South,184,0.0,6.0,58,0.00,,---,0.00,VWS V14.01,2014-01-27 01:29:00,
2014-01-26 19:34:00,53.8,39.4,29.77,SE,136,1.0,9.0,58,0.00,,---,0.00,VWS V14.01,2014-01-27 01:34:00,
2014-01-26 19:39:00,53.7,39.3,29.77,SSE,158,2.0,2.0,58,0.00,,---,0.00,VWS V14.01,2014-01-27 01:39:00,
2014-01-26 19:44:00,53.6,39.6,29.77,SSE,153,3.0,3.0,59,0.00,,---,0.00,VWS V14.01,2014-01-27 01:44:00,
2014-01-26 19:49:00,53.5,39.5,29.77,SSE,157,4.0,5.0,59,0.00,,---,0.00,VWS V14.01,2014-01-27 01:49:00,
2014-01-26 19:54:00,53.5,39.5,29.77,SSE,150,9.0,9.0,59,0.00,,---,0.00,VWS V14.01,2014-01-27 01:54:00,
2014-01-26 19:59:00,53.4,39.5,29.77,South,180,0.0,3.0,59,0.00,,---,0.00,VWS V14.01,2014-01-27 01:59:00,
2014-01-26 20:04:00,53.3,39.3,29.77,South,182,3.0,3.0,59,0.00,,---,0.00,VWS V14.01,2014-01-27 02:04:00,
2014-01-26 20:09:00,53.2,39.7,29.77,South,175,3.0,7.0,60,0.00,,---,0.00,VWS V14.01,2014-01-27 02:09:00,
2014-01-26 20:14:00,53.1,39.6,29.77,South,171,2.0,10.0,60,0.00,,---,0.00,VWS V14.01,2014-01-27 02:14:00,
2014-01-26 20:19:00,52.9,39.4,29.77,South,183,2.0,6.0,60,0.00,,---,0.00,VWS V14.01,2014-01-27 02:19:00,
2014-01-26 20:24:00,52.8,39.7,29.77,South,172,1.0,2.0,61,0.00,,---,0.00,VWS V14.01,2014-01-27 02:24:00,
2014-01-26 20:29:00,52.6,39.5,29.77,SSW,198,0.0,2.0,61,0.00,,---,0.00,VWS V14.01,2014-01-27 02:29:00,
2014-01-26 20:34:00,52.5,39.9,29.79,South,173,0.0,0.0,62,0.00,,---,0.00,VWS V14.01,2014-01-27 02:34:00,
2014-01-26 20:39:00,52.4,39.8,29.79,South,179,1.0,2.0,62,0.00,,---,0.00,VWS V14.01,2014-01-27 02:39:00,
2014-01-26 20:44:00,52.1,39.5,29.79,South,175,1.0,1.0,62,0.00,,---,0.00,VWS V14.01,2014-01-27 02:44:00,
2014-01-26 20:49:00,51.9,39.3,29.80,SSW,202,1.0,1.0,62,0.00,,---,0.00,VWS V14.01,2014-01-27 02:49:00,
2014-01-26 20:54:00,51.7,39.1,29.80,SSE,165,1.0,2.0,62,0.00,,---,0.00,VWS V14.01,2014-01-27 02:54:00,
2014-01-26 20:59:00,51.5,39.3,29.80,SSE,163,0.0,0.0,63,0.00,,---,0.00,VWS V14.01,2014-01-27 02:59:00,
2014-01-26 21:04:00,51.3,39.2,29.81,SSE,164,0.0,0.0,63,0.00,,---,0.00,VWS V14.01,2014-01-27 03:04:00,
2014-01-26 21:09:00,50.8,39.1,29.81,SSE,164,0.0,0.0,64,0.00,,---,0.00,VWS V14.01,2014-01-27 03:09:00,
2014-01-26 21:14:00,50.1,38.8,29.81,SSE,164,0.0,0.0,65,0.00,,---,0.00,VWS V14.01,2014-01-27 03:14:00,
2014-01-26 21:19:00,49.4,38.5,29.81,SSE,164,0.0,0.0,66,0.00,,---,0.00,VWS V14.01,2014-01-27 03:19:00,
2014-01-26 21:24:00,48.9,38.4,29.81,SSE,164,0.0,0.0,67,0.00,,---,0.00,VWS V14.01,2014-01-27 03:24:00,
2014-01-26 21:29:00,48.4,38.3,29.81,SSE,163,0.0,0.0,68,0.00,,---,0.00,VWS V14.01,2014-01-27 03:29:00,
2014-01-26 21:34:00,47.9,38.2,29.81,SSE,163,0.0,0.0,69,0.00,,---,0.00,VWS V14.01,2014-01-27 03:34:00,
2014-01-26 21:39:00,47.5,38.2,29.81,SSE,163,0.0,0.0,70,0.00,,---,0.00,VWS V14.01,2014-01-27 03:39:00,
2014-01-26 21:44:00,47.1,38.2,29.81,SSE,163,0.0,0.0,71,0.00,,---,0.00,VWS V14.01,2014-01-27 03:44:00,
2014-01-26 21:49:00,46.7,37.8,29.81,SSE,163,0.0,0.0,71,0.00,,---,0.00,VWS V14.01,2014-01-27 03:49:00,
2014-01-26 21:54:00,46.4,37.9,29.81,SSE,163,0.0,0.0,72,0.00,,---,0.00,VWS V14.01,2014-01-27 03:54:00,
2014-01-26 21:59:00,46.1,37.9,29.81,SSE,163,0.0,0.0,73,0.00,,---,0.00,VWS V14.01,2014-01-27 03:59:00,
2014-01-26 22:04:00,45.8,37.7,29.81,SSE,163,0.0,0.0,73,0.00,,---,0.00,VWS V14.01,2014-01-27 04:04:00,
2014-01-26 22:09:00,45.6,37.8,29.81,SSE,163,0.0,0.0,74,0.00,,---,0.00,VWS V14.01,2014-01-27 04:09:00,
2014-01-26 22:14:00,45.4,37.6,29.81,SSE,163,0.0,0.0,74,0.00,,---,0.00,VWS V14.01,2014-01-27 04:14:00,
2014-01-26 22:19:00,45.2,37.8,29.82,SSE,163,0.0,0.0,75,0.00,,---,0.00,VWS V14.01,2014-01-27 04:19:00,
2014-01-26 22:24:00,45.0,37.6,29.82,SSE,163,0.0,0.0,75,0.00,,---,0.00,VWS V14.01,2014-01-27 04:24:00,
2014-01-26 22:29:00,44.8,37.4,29.82,SSE,163,0.0,0.0,75,0.00,,---,0.00,VWS V14.01,2014-01-27 04:29:00,
2014-01-26 22:34:00,44.6,37.5,29.82,SSE,163,0.0,1.0,76,0.00,,---,0.00,VWS V14.01,2014-01-27 04:34:00,
2014-01-26 22:39:00,44.6,37.5,29.82,SSE,163,0.0,0.0,76,0.00,,---,0.00,VWS V14.01,2014-01-27 04:39:00,
2014-01-26 22:44:00,44.5,37.4,29.82,SSE,163,0.0,0.0,76,0.00,,---,0.00,VWS V14.01,2014-01-27 04:44:00,
2014-01-26 22:49:00,44.4,37.3,29.82,SSE,163,0.0,0.0,76,0.00,,---,0.00,VWS V14.01,2014-01-27 04:49:00,
2014-01-26 22:54:00,44.2,37.1,29.82,SSE,163,0.0,0.0,76,0.00,,---,0.00,VWS V14.01,2014-01-27 04:54:00,
2014-01-26 22:59:00,44.1,37.0,29.82,SSE,163,0.0,0.0,76,0.00,,---,0.00,VWS V14.01,2014-01-27 04:59:00,
2014-01-26 23:01:00,44.0,37.3,29.82,SSE,163,0.0,0.0,77,0.00,,---,0.00,VWS V14.01,2014-01-27 05:01:00,
2014-01-26 23:06:00,43.9,37.2,29.82,SSE,163,0.0,0.0,77,0.00,,---,0.00,VWS V14.01,2014-01-27 05:06:00,
2014-01-26 23:11:00,43.7,37.0,29.82,SSE,163,0.0,0.0,77,0.00,,---,0.00,VWS V14.01,2014-01-27 05:11:00,
2014-01-26 23:16:00,43.6,36.9,29.82,SSE,163,0.0,0.0,77,0.00,,---,0.00,VWS V14.01,2014-01-27 05:16:00,
2014-01-26 23:21:00,43.4,37.0,29.82,SSE,163,0.0,0.0,78,0.00,,---,0.00,VWS V14.01,2014-01-27 05:21:00,
2014-01-26 23:26:00,43.3,36.9,29.82,SSE,163,0.0,0.0,78,0.00,,---,0.00,VWS V14.01,2014-01-27 05:26:00,
2014-01-26 23:31:00,43.1,36.7,29.82,SSE,164,0.0,0.0,78,0.00,,---,0.00,VWS V14.01,2014-01-27 05:31:00,
2014-01-26 23:36:00,42.9,36.8,29.82,SSE,163,0.0,0.0,79,0.00,,---,0.00,VWS V14.01,2014-01-27 05:36:00,
2014-01-26 23:41:00,42.8,36.8,29.82,SSE,163,0.0,0.0,79,0.00,,---,0.00,VWS V14.01,2014-01-27 05:41:00,
2014-01-26 23:46:00,42.6,36.5,29.82,SSE,163,0.0,0.0,79,0.00,,---,0.00,VWS V14.01,2014-01-27 05:46:00,
2014-01-26 23:51:00,42.4,36.7,29.82,SSE,163,0.0,0.0,80,0.00,,---,0.00,VWS V14.01,2014-01-27 05:51:00,
2014-01-26 23:56:00,42.4,36.7,29.82,SSE,163,0.0,0.0,80,0.00,,---,0.00,VWS V14.01,2014-01-27 05:56:00,